Weather History for Gilze-Rijen, Netherlands

Change the Weather History Date:

Saturday, August 11, 2012

  Actual Average Record
Temperature  
Mean Temperature 62 °F -  
Max Temperature 73 °F 69 °F 91 °F (2003)
Min Temperature 50 °F 52 °F 48 °F (2007)
Degree Days  
Heating Degree Days 4    
Growing Degree Days 12 (Base 50)    
Moisture  
Dew Point 52 °F    
Average Humidity 73    
Maximum Humidity 100    
Minimum Humidity 46    
Precipitation  
Precipitation 0.00 in - - ()
Sea Level Pressure  
Sea Level Pressure 30.20 in    
Wind  
Wind Speed 5 mph ()    
Max Wind Speed 13 mph    
Max Gust Speed -    
Visibility 5.6 miles    
Events      
Averages and records for this station are not official NWS values.
T = Trace of Precipitation, MM = Missing Value Source: Averaged Metar Reports

Daily Weather History Graph

Daily Weather History Graph

Search for Another Location

Airport:

Trip Planner

Search our weather history database for the weather conditions in past years. The results will help you decide how hot, cold, wet, or windy it might be!

Date:

Astronomy

Aug. 11, 2012 Rise Set
Actual Time 6:19 AM CEST 9:10 PM CEST
Civil Twilight 5:41 AM CEST 9:48 PM CEST
Nautical Twilight 4:51 AM CEST 10:37 PM CEST
Astronomical Twilight 3:49 AM CEST 11:38 PM CEST
Moon 12:25 AM CEST (8/11) 4:44 PM CEST (8/11)
Length of Visible Light 16h 06m
Length of Day
14h 50m
Waning Crescent, 35% of the Moon is Illuminated
Aug 11
Waning Crescent
Aug 17
New
Aug 24
First Quarter
Aug 31
Full
Sep 8
Last Quarter

Hourly Weather History & Observations

Time (CEST) Temp. Dew Point Humidity Pressure Visibility Wind Dir Wind Speed Gust Speed Precip Events Conditions
12:25 AM 57.2 °F 50.0 °F 77% 30.27 in 6.2 mi NNE 6.9 mph - N/A   Unknown
12:55 AM 55.4 °F 50.0 °F 82% 30.27 in 6.2 mi NNE 6.9 mph - N/A   Unknown
1:25 AM 55.4 °F 50.0 °F 82% 30.27 in 6.2 mi NNE 5.8 mph - N/A   Unknown
1:55 AM 55.4 °F 50.0 °F 82% 30.27 in 6.2 mi NNE 5.8 mph - N/A   Unknown
2:25 AM 53.6 °F 50.0 °F 88% 30.27 in 6.2 mi NNE 5.8 mph - N/A   Unknown
2:55 AM 51.8 °F 50.0 °F 94% 30.27 in 6.2 mi NNE 4.6 mph - N/A   Unknown
3:25 AM 53.6 °F 51.8 °F 94% 30.27 in 6.2 mi NE 1.2 mph - N/A   Unknown
3:55 AM 53.6 °F 51.8 °F 94% 30.27 in 6.2 mi East 2.3 mph - N/A   Unknown
4:25 AM 53.6 °F 50.0 °F 88% 30.27 in 6.2 mi East 1.2 mph - N/A   Unknown
4:55 AM 51.8 °F 50.0 °F 94% 30.27 in 6.2 mi NE 3.5 mph - N/A   Unknown
5:25 AM 50.0 °F 48.2 °F 94% 30.24 in 6.2 mi NNE 4.6 mph - N/A   Unknown
5:55 AM 51.8 °F 51.8 °F 100% 30.24 in 5.0 mi NE 2.3 mph - N/A   Mist
5:59 AM 53.6 °F 51.8 °F 94% 30.24 in 3.7 mi NE 3.5 mph - N/A   Mist
6:03 AM 53.6 °F 51.8 °F 94% 30.24 in 5.0 mi NE 3.5 mph - N/A   Mist
6:12 AM 51.8 °F 51.8 °F 100% 30.24 in 4.3 mi NE 3.5 mph - N/A   Mist
6:25 AM 51.8 °F 50.0 °F 94% 30.24 in 3.7 mi NNE 3.5 mph - N/A   Mist
6:30 AM 51.8 °F 50.0 °F 94% 30.24 in 5.0 mi NE 2.3 mph - N/A   Mist
6:34 AM 51.8 °F 51.8 °F 100% 30.24 in 4.3 mi NE 2.3 mph - N/A   Mist
6:38 AM 51.8 °F 50.0 °F 94% 30.24 in 5.0 mi ENE 2.3 mph - N/A   Mist
6:42 AM 51.8 °F 50.0 °F 94% 30.24 in - NE 1.2 mph - N/A   Partly Cloudy
6:46 AM 51.8 °F 50.0 °F 94% 30.24 in 3.7 mi NE 2.3 mph - N/A   Partly Cloudy
6:55 AM 51.8 °F 51.8 °F 100% 30.24 in 3.7 mi NNE 2.3 mph - N/A   Mist
7:02 AM 51.8 °F 51.8 °F 100% 30.24 in 5.0 mi NNE 1.2 mph - N/A   Mist
7:10 AM 51.8 °F 51.8 °F 100% 30.24 in 4.3 mi NNE 1.2 mph - N/A   Mist
7:14 AM 51.8 °F 51.8 °F 100% 30.24 in 5.0 mi NNE 1.2 mph - N/A   Mist
7:18 AM 51.8 °F 50.0 °F 94% 30.24 in 4.3 mi NE 1.2 mph - N/A   Mist
7:25 AM 51.8 °F 51.8 °F 100% 30.24 in 3.7 mi Calm Calm - N/A   Mist
7:31 AM 53.6 °F 51.8 °F 94% 30.24 in 5.0 mi Calm Calm - N/A   Mist
7:35 AM 53.6 °F 51.8 °F 94% 30.24 in 3.7 mi Calm Calm - N/A   Mist
7:49 AM 55.4 °F 53.6 °F 94% 30.24 in 5.0 mi NE 2.3 mph - N/A   Mist
7:55 AM 55.4 °F 53.6 °F 94% 30.24 in 6.2 mi NE 3.5 mph - N/A   Unknown
8:08 AM 57.2 °F 53.6 °F 88% 30.24 in 6.2 mi NE 2.3 mph - N/A   Unknown
8:25 AM 59.0 °F 53.6 °F 82% 30.24 in 6.2 mi ENE 4.6 mph - N/A   Unknown
8:55 AM 60.8 °F 55.4 °F 82% 30.24 in 6.2 mi East 6.9 mph - N/A   Unknown
9:25 AM 64.4 °F 55.4 °F 73% 30.24 in 6.2 mi East 5.8 mph - N/A   Partly Cloudy
9:43 AM 64.4 °F 53.6 °F 68% 30.24 in 4.3 mi ESE 5.8 mph - N/A   Haze
9:44 AM 64.4 °F 53.6 °F 68% 30.24 in 6.2 mi ESE 5.8 mph - N/A   Unknown
9:55 AM 64.4 °F 55.4 °F 73% 30.24 in 6.2 mi SE 5.8 mph - N/A   Unknown
9:59 AM 64.4 °F 53.6 °F 68% 30.24 in 3.7 mi ESE 5.8 mph - N/A   Haze
10:04 AM 66.2 °F 53.6 °F 64% 30.24 in 6.2 mi ESE 5.8 mph - N/A   Unknown
10:14 AM 66.2 °F 53.6 °F 64% 30.24 in 6.2 mi East 8.1 mph - N/A   Unknown
10:25 AM 66.2 °F 55.4 °F 68% 30.24 in 6.2 mi ESE 8.1 mph - N/A   Unknown
10:33 AM 66.2 °F 53.6 °F 64% 30.24 in 4.3 mi ESE 5.8 mph - N/A   Haze
10:39 AM 66.2 °F 53.6 °F 64% 30.24 in 6.2 mi ESE 6.9 mph - N/A   Partly Cloudy
10:55 AM 68.0 °F 55.4 °F 64% 30.24 in 6.2 mi ESE 6.9 mph - N/A   Unknown
11:25 AM 68.0 °F 51.8 °F 56% 30.24 in 6.2 mi East 6.9 mph - N/A   Scattered Clouds
11:55 AM 68.0 °F 50.0 °F 52% 30.21 in 6.2 mi East 10.4 mph - N/A   Mostly Cloudy
12:25 PM 69.8 °F 50.0 °F 49% 30.21 in 6.2 mi ENE 9.2 mph - N/A   Scattered Clouds
12:55 PM 68.0 °F 50.0 °F 52% 30.21 in 6.2 mi ENE 9.2 mph - N/A   Overcast
1:10 PM 69.8 °F 50.0 °F 49% 30.21 in 3.7 mi ENE 10.4 mph - N/A   Haze
1:16 PM 69.8 °F 51.8 °F 53% 30.21 in 6.2 mi ENE 10.4 mph - N/A   Scattered Clouds
1:25 PM 71.6 °F 50.0 °F 46% 30.18 in 6.2 mi East 10.4 mph - N/A   Mostly Cloudy
1:34 PM 69.8 °F 51.8 °F 53% 30.18 in 1.4 mi East 10.4 mph - N/A   Haze
1:38 PM 71.6 °F 51.8 °F 50% 30.18 in 6.2 mi ENE 10.4 mph - N/A   Overcast
1:51 PM 69.8 °F 51.8 °F 53% 30.18 in 6.2 mi ENE 10.4 mph - N/A   Overcast
1:55 PM 68.0 °F 51.8 °F 56% 30.18 in 6.2 mi ENE 10.4 mph - N/A   Overcast
2:03 PM 68.0 °F 50.0 °F 52% 30.18 in 3.7 mi ENE 10.4 mph - N/A   Haze
2:04 PM 68.0 °F 50.0 °F 52% 30.18 in 6.2 mi NE 10.4 mph - N/A   Mostly Cloudy
2:20 PM 69.8 °F 51.8 °F 53% 30.18 in 6.2 mi NE 9.2 mph - N/A   Mostly Cloudy
2:25 PM 71.6 °F 51.8 °F 50% 30.18 in 6.2 mi ENE 9.2 mph - N/A   Mostly Cloudy
2:55 PM 69.8 °F 51.8 °F 53% 30.18 in 6.2 mi ENE 10.4 mph - N/A   Mostly Cloudy
3:25 PM 71.6 °F 53.6 °F 53% 30.15 in 6.2 mi East 8.1 mph - N/A   Partly Cloudy
3:55 PM 69.8 °F 51.8 °F 53% 30.15 in 6.2 mi ENE 12.7 mph - N/A   Scattered Clouds
4:25 PM 71.6 °F 51.8 °F 50% 30.15 in 6.2 mi East 10.4 mph - N/A   Scattered Clouds
4:55 PM 73.4 °F 53.6 °F 50% 30.12 in 6.2 mi East 9.2 mph - N/A   Scattered Clouds
5:25 PM 71.6 °F 53.6 °F 53% 30.12 in 6.2 mi East 9.2 mph - N/A   Partly Cloudy
5:55 PM 71.6 °F 51.8 °F 50% 30.12 in 6.2 mi East 10.4 mph - N/A   Partly Cloudy
6:25 PM 69.8 °F 51.8 °F 53% 30.12 in 6.2 mi ENE 12.7 mph - N/A   Partly Cloudy
6:55 PM 69.8 °F 51.8 °F 53% 30.09 in 6.2 mi East 10.4 mph - N/A   Partly Cloudy
7:25 PM 69.8 °F 51.8 °F 53% 30.09 in 6.2 mi East 11.5 mph - N/A   Unknown
7:55 PM 68.0 °F 51.8 °F 56% 30.09 in 6.2 mi East 10.4 mph - N/A   Partly Cloudy
8:25 PM 68.0 °F 51.8 °F 56% 30.09 in 6.2 mi East 9.2 mph - N/A   Unknown
8:55 PM 66.2 °F 51.8 °F 60% 30.09 in 6.2 mi ENE 8.1 mph - N/A   Unknown
9:25 PM 64.4 °F 51.8 °F 64% 30.09 in 6.2 mi ENE 6.9 mph - N/A   Unknown
9:55 PM 62.6 °F 51.8 °F 68% 30.09 in 6.2 mi ENE 8.1 mph - N/A   Unknown
10:25 PM 62.6 °F 51.8 °F 68% 30.09 in 6.2 mi ENE 8.1 mph - N/A   Unknown
10:55 PM 60.8 °F 51.8 °F 72% 30.06 in 6.2 mi East 9.2 mph - N/A   Partly Cloudy
11:25 PM 60.8 °F 51.8 °F 72% 30.06 in 6.2 mi East 9.2 mph - N/A   Unknown
11:55 PM 60.8 °F 51.8 °F 72% 30.06 in 6.2 mi East 8.1 mph - N/A   Unknown